| time (UTC) | temp F | wind direction | speed knots | gust knots | rain 1hr in | rain 24hr in | rain mn in | humidity % | barometer mb |
| 20260506113026 | 46 | 130 | 0.0 | 0.0 | 0.00 | 1.32 | 0.63 | 95 | 1008.1 |
| 20260506111523 | 45 | 293 | 0.0 | 0.0 | 0.00 | 1.32 | 0.63 | 95 | 1007.9 |
| 20260506110012 | 45 | 103 | 0.0 | 0.0 | 0.00 | 1.32 | 0.63 | 95 | 1008.4 |
| 20260506101526 | 45 | 349 | 0.0 | 0.0 | 0.05 | 1.32 | 0.63 | 95 | 1007.2 |
| 20260506100025 | 45 | 18 | 0.9 | 2.6 | 0.07 | 1.32 | 0.63 | 95 | 1007.0 |
| 20260506094527 | 45 | 5 | 0.0 | 0.9 | 0.07 | 1.31 | 0.62 | 94 | 1007.5 |
| 20260506090025 | 44 | 17 | 0.0 | 2.6 | 0.07 | 1.25 | 0.56 | 94 | 1007.6 |
| 20260506084526 | 44 | 342 | 1.7 | 6.1 | 0.12 | 1.24 | 0.55 | 94 | 1007.4 |
| 20260506083013 | 44 | 359 | 0.0 | 6.1 | 0.16 | 1.23 | 0.54 | 94 | 1007.2 |
| 20260506081505 | 44 | 304 | 0.9 | 6.1 | 0.18 | 1.21 | 0.52 | 94 | 1007.4 |
| 20260506073013 | 45 | 25 | 1.7 | 6.1 | 0.13 | 1.07 | 0.38 | 94 | 1006.8 |
| 20260506071519 | 46 | 335 | 0.9 | 6.1 | 0.12 | 1.03 | 0.34 | 94 | 1006.8 |
| 20260506041512 | 49 | 79 | 0.0 | 3.5 | 0.09 | 0.72 | 0.03 | 94 | 1008.0 |
| 20260506040014 | 49 | 14 | 0.9 | 4.3 | 0.08 | 0.69 | 0.00 | 94 | 1008.1 |
| 20260506034518 | 49 | 350 | 0.9 | 3.5 | 0.06 | 0.66 | 0.66 | 94 | 1008.3 |
| 20260506033019 | 49 | 19 | 2.6 | 6.1 | 0.07 | 0.64 | 0.64 | 94 | 1008.2 |
| 20260506031525 | 49 | 355 | 1.7 | 4.3 | 0.11 | 0.63 | 0.63 | 94 | 1008.0 |
| 20260506030026 | 49 | 43 | 1.7 | 4.3 | 0.19 | 0.61 | 0.61 | 94 | 1008.2 |
| 20260506024513 | 50 | 313 | 0.0 | 1.7 | 0.22 | 0.60 | 0.60 | 93 | 1008.8 |
| 20260506023020 | 50 | 18 | 0.9 | 4.3 | 0.21 | 0.57 | 0.57 | 93 | 1008.5 |
| 20260506021522 | 50 | 71 | 1.7 | 6.1 | 0.20 | 0.52 | 0.52 | 93 | 1008.1 |
| 20260506020006 | 51 | 76 | 1.7 | 5.2 | 0.11 | 0.42 | 0.42 | 92 | 1007.7 |
| 20260506014512 | 52 | 358 | 2.6 | 4.3 | 0.08 | 0.38 | 0.38 | 92 | 1007.5 |
| 20260506013013 | 54 | 33 | 1.7 | 4.3 | 0.07 | 0.36 | 0.36 | 92 | 1007.4 |
| 20260506011517 | 55 | 347 | 0.9 | 4.3 | 0.04 | 0.32 | 0.32 | 91 | 1007.3 |
| 20260506010023 | 57 | 198 | 0.0 | 0.0 | 0.04 | 0.31 | 0.31 | 92 | 1007.2 |
| 20260506004509 | 57 | 198 | 0.0 | 0.0 | 0.05 | 0.30 | 0.30 | 92 | 1007.4 |
| 20260506003028 | 57 | 198 | 0.0 | 0.0 | 0.07 | 0.29 | 0.29 | 91 | 1007.3 |
| 20260506001516 | 57 | 198 | 0.0 | 0.0 | 0.17 | 0.28 | 0.28 | 91 | 1007.3 |
| 20260506000026 | 57 | 198 | 0.0 | 0.0 | 0.27 | 0.27 | 0.27 | 90 | 1007.4 |
| 20260505234546 | 57 | 198 | 0.0 | 0.0 | 0.25 | 0.25 | 0.25 | 90 | 1007.4 |
| 20260505233015 | 58 | 198 | 0.0 | 2.6 | 0.22 | 0.22 | 0.22 | 89 | 1007.6 |
| 20260505231524 | 59 | 259 | 0.9 | 4.3 | 0.11 | 0.11 | 0.11 | 87 | 1008.1 |
| 20260505230015 | 60 | 276 | 0.0 | 1.7 | 0.00 | 0.00 | 0.00 | 85 | 1007.2 |
| 20260505224528 | 60 | 263 | 0.0 | 2.6 | 0.00 | 0.00 | 0.00 | 85 | 1006.9 |
| 20260505223024 | 60 | 62 | 0.0 | 2.6 | 0.00 | 0.00 | 0.00 | 84 | 1007.0 |
| 20260505221510 | 60 | 53 | 0.0 | 4.3 | 0.00 | 0.00 | 0.00 | 83 | 1007.1 |
| 20260505220015 | 61 | 6 | 0.0 | 2.6 | 0.00 | 0.00 | 0.00 | 82 | 1007.2 |
| 20260505214521 | 61 | 271 | 0.0 | 2.6 | 0.00 | 0.00 | 0.00 | 81 | 1007.3 |
| 20260505213028 | 63 | 293 | 0.9 | 2.6 | 0.00 | 0.00 | 0.00 | 80 | 1007.2 |
| 20260505211525 | 64 | 350 | 0.0 | 2.6 | 0.00 | 0.00 | 0.00 | 78 | 1007.2 |
| 20260505210029 | 64 | 265 | 0.0 | 0.9 | 0.00 | 0.00 | 0.00 | 77 | 1007.1 |
| 20260505204524 | 64 | 225 | 0.0 | 3.5 | 0.00 | 0.00 | 0.00 | 76 | 1007.0 |
| 20260505203002 | 64 | 122 | 0.0 | 4.3 | 0.00 | 0.00 | 0.00 | 74 | 1006.9 |
| 20260505201506 | 66 | 2 | 0.9 | 4.3 | 0.00 | 0.00 | 0.00 | 70 | 1007.0 |
| 20260505200012 | 67 | 211 | 0.0 | 1.7 | 0.00 | 0.00 | 0.00 | 67 | 1007.0 |
| 20260505194508 | 68 | 142 | 0.0 | 0.9 | 0.00 | 0.00 | 0.00 | 68 | 1007.0 |
| 20260505191504 | 67 | 262 | 0.0 | 0.9 | 0.00 | 0.00 | 0.00 | 69 | 1007.3 |
| 20260505190006 | 67 | 264 | 0.0 | 0.9 | 0.00 | 0.00 | 0.00 | 69 | 1007.6 |
| 20260505184521 | 67 | 264 | 0.0 | 0.9 | 0.00 | 0.00 | 0.00 | 68 | 1007.8 |
| 20260505180004 | 67 | 247 | 1.7 | 9.6 | 0.00 | 0.00 | 0.00 | 65 | 1007.6 |
| 20260505174513 | 68 | 301 | 1.7 | 6.1 | 0.00 | 0.00 | 0.00 | 66 | 1007.4 |
| 20260505173019 | 69 | 200 | 0.0 | 4.3 | 0.00 | 0.00 | 0.00 | 65 | 1007.4 |
| 20260505164505 | 70 | 225 | 0.9 | 7.8 | 0.00 | 0.00 | 0.00 | 64 | 1007.3 |
| 20260505163009 | 71 | 146 | 0.9 | 7.0 | 0.00 | 0.00 | 0.00 | 61 | 1007.3 |
| 20260505161513 | 72 | 256 | 1.7 | 6.1 | 0.00 | 0.00 | 0.00 | 59 | 1007.3 |
| 20260505153017 | 71 | 30 | 1.7 | 7.0 | 0.00 | 0.00 | 0.00 | 63 | 1006.7 |
| 20260505151510 | 70 | 240 | 1.7 | 6.1 | 0.00 | 0.00 | 0.00 | 63 | 1006.8 |
| 20260505120024 | 61 | 124 | 0.0 | 1.7 | 0.00 | 0.00 | 0.00 | 74 | 1006.2 |
| 20260505114524 | 61 | 188 | 0.9 | 5.2 | 0.00 | 0.00 | 0.00 | 74 | 1006.3 |